K5RNB Weather Reports


Display with metric or nautical units.
time (UTC)temp
F
wind
direction
speed
MPH
gust
MPH
rain 1hr
in
rain 24hr
in
rain mn
in
humidity
%
barometer
mb
20240622084912 74 240 0.0 0.0 0.00 0.00 0.00 83 1016.3
20240622084413 74 240 0.0 0.0 0.00 0.00 0.00 83 1016.4
20240622083914 74 240 0.0 0.0 0.00 0.00 0.00 83 1016.3
20240622083413 74 240 0.0 0.0 0.00 0.00 0.00 83 1016.4
20240622082913 74 240 0.0 0.0 0.00 0.00 0.00 83 1016.4
20240622081913 74 240 0.0 0.0 0.00 0.00 0.00 83 1016.5
20240622081413 74 240 0.0 0.0 0.00 0.00 0.00 83 1016.5
20240622080913 74 240 0.0 0.0 0.00 0.00 0.00 83 1016.5
20240622080413 75 240 0.0 0.0 0.00 0.00 0.00 83 1016.5
20240622075413 75 240 0.0 0.0 0.00 0.00 0.00 82 1016.4
20240622074913 75 240 0.0 0.0 0.00 0.00 0.00 82 1016.5
20240622074413 75 240 0.0 0.0 0.00 0.00 0.00 83 1016.4
20240622073913 75 242 0.0 0.0 0.00 0.00 0.00 83 1016.4
20240622073413 75 254 0.0 0.0 0.00 0.00 0.00 82 1016.5
20240622072913 75 254 0.0 0.0 0.00 0.00 0.00 82 1016.5
20240622071914 75 254 0.0 0.0 0.00 0.00 0.00 82 1016.5
20240622071414 75 254 0.0 0.0 0.00 0.00 0.00 82 1016.6
20240622070914 75 279 0.0 0.0 0.00 0.00 0.00 82 1016.7
20240622070413 75 279 0.0 0.0 0.00 0.00 0.00 82 1016.7
20240622065913 75 279 0.0 0.0 0.00 0.00 0.00 82 1016.7
20240622065413 75 279 0.0 0.0 0.00 0.00 0.00 82 1016.7
20240622064413 76 295 0.0 0.0 0.00 0.00 0.00 82 1016.7
20240622063913 76 295 0.0 0.0 0.00 0.00 0.00 82 1016.7
20240622063413 76 295 0.0 0.0 0.00 0.00 0.00 81 1016.7
20240622062914 76 295 0.0 0.0 0.00 0.00 0.00 81 1016.7
20240622062414 76 315 0.0 0.0 0.00 0.00 0.00 81 1016.7
20240622061914 76 315 0.0 0.0 0.00 0.00 0.00 81 1016.8
20240622061413 76 315 0.0 0.0 0.00 0.00 0.00 81 1016.8
20240622060914 76 315 0.0 0.0 0.00 0.00 0.00 81 1016.8
20240622060414 76 315 0.0 0.0 0.00 0.00 0.00 81 1016.8
20240622055913 77 315 0.0 0.0 0.00 0.00 0.00 80 1016.9
20240622055413 77 315 0.0 0.0 0.00 0.00 0.00 80 1016.9
20240622054914 77 315 0.0 0.0 0.00 0.00 0.00 79 1016.9
20240622054414 77 315 0.0 0.0 0.00 0.00 0.00 78 1016.9
20240622053914 78 315 0.0 0.0 0.00 0.00 0.00 78 1016.9
20240622052914 78 315 0.0 2.0 0.00 0.00 0.00 77 1017.0
20240622052413 78 315 0.0 2.0 0.00 0.00 0.00 77 1017.0
20240622051914 79 315 1.0 2.0 0.00 0.00 0.00 76 1017.1
20240622051414 80 315 0.0 2.0 0.00 0.00 0.00 74 1017.0
20240622050914 80 315 0.0 2.0 0.00 0.00 0.00 73 1017.0
20240622050414 81 315 1.0 2.0 0.00 0.00 0.00 72 1016.9
20240622045414 81 161 1.0 3.0 0.00 0.00 0.00 71 1017.0
20240622044915 82 151 2.0 3.0 0.00 0.00 0.00 70 1017.0
20240622044414 82 141 0.0 3.0 0.00 0.00 0.00 70 1017.0
20240622043914 82 143 1.0 3.0 0.00 0.00 0.00 70 1016.9
20240622043414 82 135 2.0 3.0 0.00 0.00 0.00 70 1016.9
20240622042914 82 124 3.0 3.0 0.00 0.00 0.00 70 1016.8
20240622041915 83 142 3.0 6.0 0.00 0.00 0.00 69 1016.7
20240622041414 83 137 3.0 6.0 0.00 0.00 0.00 68 1016.7
20240622040914 83 130 2.0 7.0 0.00 0.00 0.00 67 1016.6
20240622040415 83 112 3.0 7.0 0.00 0.00 0.00 68 1016.6
20240622035914 83 112 3.0 6.0 0.00 0.00 0.00 68 1016.6
20240622035414 83 110 3.0 6.0 0.00 0.00 0.00 68 1016.5
20240622034914 83 140 4.0 8.0 0.00 0.00 0.00 68 1016.5
20240622034415 83 131 5.0 8.0 0.00 0.00 0.00 67 1016.4
20240622033914 84 132 5.0 7.0 0.00 0.00 0.00 67 1016.4
20240622033415 83 113 3.0 6.0 0.00 0.00 0.00 68 1016.2
20240622032915 84 134 3.0 5.0 0.00 0.00 0.00 67 1016.2
20240622032414 84 149 3.0 6.0 0.00 0.00 0.00 66 1016.1
20240622031915 84 134 3.0 6.0 0.00 0.00 0.00 66 1016.0
20240622031415 85 128 3.0 6.0 0.00 0.00 0.00 65 1015.9
20240622030915 84 129 3.0 6.0 0.00 0.00 0.00 65 1016.0
20240622025915 84 129 4.0 6.0 0.00 0.00 0.00 66 1015.8
20240622025414 84 135 5.0 6.0 0.00 0.00 0.00 67 1015.8
20240622024916 84 125 5.0 6.0 0.00 0.00 0.00 67 1015.7
20240622024415 84 127 4.0 6.0 0.00 0.00 0.00 68 1015.6
20240622023915 84 118 3.0 6.0 0.00 0.00 0.00 68 1015.6
20240622023415 84 139 2.0 3.0 0.00 0.00 0.00 67 1015.6
20240622022915 85 139 1.0 3.0 0.00 0.00 0.00 67 1015.5
20240622021415 86 79 1.0 3.0 0.00 0.00 0.00 66 1015.5
20240622020916 86 99 0.0 2.0 0.00 0.00 0.00 65 1015.4
20240622020415 86 84 1.0 3.0 0.00 0.00 0.00 63 1015.4
20240622015915 86 111 0.0 5.0 0.00 0.00 0.00 63 1015.4
20240622015415 86 110 3.0 6.0 0.00 0.00 0.00 62 1015.5
20240622014915 86 159 3.0 6.0 0.00 0.00 0.00 61 1015.4
20240622014415 87 142 3.0 6.0 0.00 0.00 0.00 60 1015.5
20240622013416 87 138 3.0 6.0 0.00 0.00 0.00 59 1015.4
20240622012916 88 133 3.0 6.0 0.00 0.00 0.00 59 1015.5
20240622011916 88 151 3.0 6.0 0.00 0.00 0.00 57 1015.4
20240622011416 89 150 3.0 6.0 0.00 0.00 0.00 57 1015.5
20240622010915 89 166 4.0 6.0 0.00 0.00 0.00 56 1015.5
20240622010415 89 166 3.0 6.0 0.00 0.00 0.00 56 1015.5
20240622005916 89 170 5.0 7.0 0.00 0.00 0.00 56 1015.6
20240622005415 90 167 5.0 7.0 0.00 0.00 0.00 55 1015.6
20240622004916 90 169 4.0 8.0 0.00 0.00 0.00 56 1015.6
20240622004416 90 142 4.0 9.0 0.00 0.00 0.00 56 1015.5
20240622003915 90 169 5.0 9.0 0.00 0.00 0.00 54 1015.5
20240622003416 90 161 5.0 10.0 0.00 0.00 0.00 54 1015.6
20240622002415 91 183 7.0 12.0 0.00 0.00 0.00 53 1015.6
20240622001916 91 182 6.0 9.0 0.00 0.00 0.00 53 1015.6
20240622001415 91 156 6.0 9.0 0.00 0.00 0.00 53 1015.8
20240622000916 92 187 6.0 10.0 0.00 0.00 0.00 53 1015.7
20240621235916 91 200 7.0 12.0 0.00 0.00 0.00 52 1015.8
20240621234916 91 182 6.0 12.0 0.00 0.00 0.00 52 1015.8
20240621234416 92 188 7.0 12.0 0.00 0.00 0.00 52 1015.8
20240621233416 92 175 8.0 12.0 0.00 0.00 0.00 51 1015.8
20240621232917 92 187 7.0 12.0 0.00 0.00 0.00 51 1015.9
20240621232416 92 176 8.0 12.0 0.00 0.00 0.00 50 1015.9
20240621231916 92 181 8.0 12.0 0.00 0.00 0.00 50 1015.9
20240621231416 92 154 7.0 12.0 0.00 0.00 0.00 50 1015.9
20240621230916 92 146 5.0 15.0 0.00 0.00 0.00 52 1016.0
20240621230416 92 179 7.0 15.0 0.00 0.00 0.00 51 1016.1
20240621225917 92 156 11.0 15.0 0.00 0.00 0.00 51 1016.1
20240621224916 92 155 9.0 13.0 0.00 0.00 0.00 51 1016.2
20240621224417 92 184 9.0 12.0 0.00 0.00 0.00 51 1016.3
20240621223916 92 203 6.0 12.0 0.00 0.00 0.00 51 1016.4
20240621223417 92 191 7.0 13.0 0.00 0.00 0.00 51 1016.4
20240621222917 92 175 9.0 13.0 0.00 0.00 0.00 51 1016.3
20240621222416 92 201 9.0 14.0 0.00 0.00 0.00 52 1016.5
20240621221916 92 195 10.0 14.0 0.00 0.00 0.00 51 1016.5
20240621221417 92 191 9.0 14.0 0.00 0.00 0.00 51 1016.6
20240621220916 92 155 8.0 17.0 0.00 0.00 0.00 52 1016.6
20240621220417 92 200 9.0 17.0 0.00 0.00 0.00 51 1016.7
20240621215916 92 181 10.0 14.0 0.00 0.00 0.00 51 1016.7
20240621215416 92 207 6.0 15.0 0.00 0.00 0.00 53 1016.8
20240621214417 93 187 9.0 15.0 0.00 0.00 0.00 50 1017.0
20240621213416 92 158 6.0 12.0 0.00 0.00 0.00 53 1016.9
20240621212917 92 144 7.0 12.0 0.00 0.00 0.00 53 1017.1
20240621212416 93 154 7.0 12.0 0.00 0.00 0.00 52 1017.1
20240621211917 93 207 7.0 12.0 0.00 0.00 0.00 52 1017.2
20240621211417 92 204 6.0 14.0 0.00 0.00 0.00 53 1017.3
20240621210917 92 192 10.0 15.0 0.00 0.00 0.00 52 1017.3
20240621210417 92 171 7.0 15.0 0.00 0.00 0.00 52 1017.4
20240621205917 92 186 8.0 14.0 0.00 0.00 0.00 54 1017.4
20240621204917 92 151 7.0 14.0 0.00 0.00 0.00 54 1017.5
20240621204417 92 142 7.0 15.0 0.00 0.00 0.00 53 1017.6
20240621203917 93 165 9.0 15.0 0.00 0.00 0.00 52 1017.7
20240621202417 92 105 7.0 14.0 0.00 0.00 0.00 54 1017.8
20240621201917 92 131 4.0 15.0 0.00 0.00 0.00 56 1017.9
20240621201417 92 167 7.0 15.0 0.00 0.00 0.00 55 1017.9
20240621200917 92 195 9.0 14.0 0.00 0.00 0.00 55 1017.8
20240621200417 93 145 4.0 12.0 0.00 0.00 0.00 56 1017.9
20240621195917 92 132 5.0 12.0 0.00 0.00 0.00 55 1017.9
20240621195417 92 112 6.0 12.0 0.00 0.00 0.00 55 1018.0
20240621194918 91 109 4.0 12.0 0.00 0.00 0.00 58 1018.0
20240621194417 92 169 6.0 13.0 0.00 0.00 0.00 55 1018.1
20240621193917 91 113 9.0 13.0 0.00 0.00 0.00 58 1018.2
20240621193417 91 119 9.0 14.0 0.00 0.00 0.00 57 1018.2
20240621192917 91 185 7.0 14.0 0.00 0.00 0.00 58 1018.3
20240621191917 91 181 11.0 15.0 0.00 0.00 0.00 57 1018.4
20240621191418 90 120 7.0 15.0 0.00 0.00 0.00 58 1018.5
20240621190418 90 178 7.0 14.0 0.00 0.00 0.00 58 1018.7
20240621185917 90 143 9.0 14.0 0.00 0.00 0.00 58 1018.5
20240621185417 90 193 7.0 15.0 0.00 0.00 0.00 59 1018.5
20240621184917 90 121 6.0 15.0 0.00 0.00 0.00 59 1018.7
20240621184417 90 127 5.0 12.0 0.00 0.00 0.00 58 1018.7
20240621183418 90 164 6.0 13.0 0.00 0.00 0.00 59 1018.8
20240621182918 90 160 5.0 13.0 0.00 0.00 0.00 59 1019.0
20240621182418 90 113 6.0 12.0 0.00 0.00 0.00 60 1019.1
20240621181918 89 210 5.0 12.0 0.00 0.00 0.00 59 1019.1
20240621181418 89 151 6.0 12.0 0.00 0.00 0.00 59 1019.2
20240621180918 90 151 8.0 12.0 0.00 0.00 0.00 58 1019.2
20240621175918 90 122 3.0 10.0 0.00 0.00 0.00 59 1019.4
20240621175418 89 140 6.0 14.0 0.00 0.00 0.00 61 1019.6
20240621174918 89 152 7.0 15.0 0.00 0.00 0.00 61 1019.7
20240621173418 88 151 6.0 15.0 0.00 0.00 0.00 60 1019.8
20240621172919 88 189 10.0 15.0 0.00 0.00 0.00 59 1019.9
20240621172418 88 194 6.0 15.0 0.00 0.00 0.00 60 1019.9
20240621171918 88 183 8.0 15.0 0.00 0.00 0.00 61 1019.9
20240621171418 88 181 9.0 15.0 0.00 0.00 0.00 60 1020.0
20240621170918 88 140 7.0 14.0 0.00 0.00 0.00 62 1020.0
20240621170419 89 173 8.0 14.0 0.00 0.00 0.00 60 1020.0
20240621165919 88 203 6.0 14.0 0.00 0.00 0.00 62 1020.0
20240621165419 88 195 6.0 14.0 0.00 0.00 0.00 62 1020.0
20240621164919 87 190 5.0 15.0 0.00 0.00 0.00 62 1020.1
20240621164419 87 186 9.0 15.0 0.00 0.00 0.00 62 1020.2
20240621163918 87 169 8.0 14.0 0.00 0.00 0.00 62 1020.2
20240621161918 87 165 6.0 13.0 0.00 0.00 0.00 63 1020.2
20240621161418 88 119 7.0 12.0 0.00 0.00 0.00 62 1020.2
20240621160918 87 132 5.0 12.0 0.00 0.00 0.00 66 1020.2
20240621160419 87 128 9.0 12.0 0.00 0.00 0.00 64 1020.2
20240621155918 87 151 5.0 12.0 0.00 0.00 0.00 67 1020.2
20240621155418 87 148 7.0 12.0 0.00 0.00 0.00 67 1020.2
20240621154918 87 135 3.0 12.0 0.00 0.00 0.00 69 1020.2
20240621154418 86 155 6.0 14.0 0.00 0.00 0.00 69 1020.3
20240621153919 85 172 5.0 14.0 0.00 0.00 0.00 69 1020.4
20240621153419 86 143 6.0 13.0 0.00 0.00 0.00 71 1020.4
20240621152919 85 150 7.0 13.0 0.00 0.00 0.00 70 1020.4
20240621152418 85 183 6.0 12.0 0.00 0.00 0.00 70 1020.5
20240621151920 86 141 8.0 12.0 0.00 0.00 0.00 69 1020.4
20240621151419 86 56 4.0 12.0 0.00 0.00 0.00 71 1020.5
20240621150919 86 143 3.0 9.0 0.00 0.00 0.00 71 1020.3
20240621150419 86 123 3.0 9.0 0.00 0.00 0.00 72 1020.4
20240621145919 85 142 2.0 9.0 0.00 0.00 0.00 74 1020.4
20240621145419 85 143 5.0 9.0 0.00 0.00 0.00 72 1020.4
20240621144919 85 122 4.0 9.0 0.00 0.00 0.00 74 1020.5
20240621144419 84 176 4.0 9.0 0.00 0.00 0.00 74 1020.4
20240621143919 84 92 4.0 9.0 0.00 0.00 0.00 75 1020.6
20240621143419 84 176 4.0 9.0 0.00 0.00 0.00 75 1020.5
20240621142920 83 111 4.0 9.0 0.00 0.00 0.00 76 1020.4
20240621142420 83 136 5.0 9.0 0.00 0.00 0.00 76 1020.5
20240621141920 83 178 6.0 9.0 0.00 0.00 0.00 76 1020.5
20240621140420 82 138 5.0 10.0 0.00 0.00 0.00 77 1020.5
20240621135919 82 144 6.0 10.0 0.00 0.00 0.00 77 1020.6
20240621135420 81 154 5.0 10.0 0.00 0.00 0.00 78 1020.5
20240621133920 81 134 3.0 7.0 0.00 0.00 0.00 78 1020.4
20240621133420 81 141 3.0 7.0 0.00 0.00 0.00 78 1020.4
20240621132919 82 85 3.0 6.0 0.00 0.00 0.00 78 1020.2
20240621132419 81 89 2.0 5.0 0.00 0.00 0.00 79 1020.3
20240621131919 80 73 1.0 3.0 0.00 0.00 0.00 80 1020.3
20240621131419 80 87 1.0 3.0 0.00 0.00 0.00 81 1020.1
20240621130919 80 109 1.0 3.0 0.00 0.00 0.00 80 1020.2
20240621125420 80 84 1.0 3.0 0.00 0.00 0.00 80 1020.0
20240621124919 80 84 1.0 3.0 0.00 0.00 0.00 80 1020.0
20240621124419 80 107 1.0 5.0 0.00 0.00 0.00 80 1019.9
20240621123920 80 69 2.0 7.0 0.00 0.00 0.00 80 1019.8
20240621122920 79 68 2.0 5.0 0.00 0.00 0.00 81 1019.8
20240621122420 78 80 2.0 3.0 0.00 0.00 0.00 82 1019.9
20240621121920 77 48 2.0 3.0 0.00 0.00 0.00 82 1019.9
20240621121419 77 71 2.0 3.0 0.00 0.00 0.00 82 1019.7
20240621120920 76 91 0.0 2.0 0.00 0.00 0.00 83 1019.8
20240621120420 76 76 0.0 2.0 0.00 0.00 0.00 83 1019.6
20240621115920 76 12 1.0 3.0 0.00 0.00 0.00 83 1019.6
20240621115419 75 37 1.0 3.0 0.00 0.00 0.00 83 1019.6
20240621114920 75 89 1.0 3.0 0.00 0.00 0.00 83 1019.5
20240621114419 75 60 1.0 3.0 0.00 0.00 0.00 83 1019.4
20240621113420 74 100 0.0 1.0 0.00 0.00 0.00 83 1019.5
20240621112420 74 102 0.0 1.0 0.00 0.00 0.00 83 1019.5
20240621111920 74 102 0.0 1.0 0.00 0.00 0.00 83 1019.5
20240621110920 74 102 0.0 0.0 0.00 0.00 0.00 83 1019.3
20240621105921 75 102 0.0 1.0 0.00 0.00 0.00 83 1019.3
20240621105420 75 102 0.0 1.0 0.00 0.00 0.00 83 1019.3
20240621104421 75 102 0.0 1.0 0.00 0.00 0.00 83 1019.2
20240621103421 76 102 0.0 2.0 0.00 0.00 0.00 83 1019.0
20240621102920 76 84 1.0 2.0 0.00 0.00 0.00 83 1019.0
20240621102420 76 63 0.0 2.0 0.00 0.00 0.00 82 1018.9
20240621101921 76 50 0.0 3.0 0.00 0.00 0.00 82 1019.0
20240621100921 76 75 2.0 3.0 0.00 0.00 0.00 83 1018.9
20240621100421 76 99 1.0 3.0 0.00 0.00 0.00 83 1018.9
20240621095921 76 87 0.0 3.0 0.00 0.00 0.00 83 1019.0
20240621095420 76 43 1.0 3.0 0.00 0.00 0.00 83 1019.0
20240621094921 76 84 1.0 3.0 0.00 0.00 0.00 83 1019.0
20240621094420 76 112 0.0 2.0 0.00 0.00 0.00 83 1019.0
20240621093921 75 134 0.0 1.0 0.00 0.00 0.00 83 1019.1
20240621093421 75 305 0.0 1.0 0.00 0.00 0.00 83 1019.0
20240621092921 75 337 0.0 1.0 0.00 0.00 0.00 83 1019.0
20240621091921 75 272 0.0 1.0 0.00 0.00 0.00 83 1019.0
20240621091421 75 277 0.0 1.0 0.00 0.00 0.00 83 1019.0
20240621090921 75 277 0.0 1.0 0.00 0.00 0.00 83 1019.0
20240621090421 75 277 0.0 1.0 0.00 0.00 0.00 83 1018.9
20240621085921 75 277 0.0 1.0 0.00 0.00 0.00 83 1018.9
20240621085421 75 277 0.0 1.0 0.00 0.00 0.00 83 1018.9